EHI
0 0 1 2 2 2 2 1 0 1 1 1 0 0 1 0 0 0 1 5 14 22 23 21 18 15 13 13 15 16 13 11 9 6 4 3 2 2 3 4 6 6 5
1 1 2 2 1 2 3 2 2 3 3 2 1 1 2 1 0 0 0 3 10 18 22 21 18 13 12 13 14 14 12 11 10 7 5 3 2 2 3 4 5 6 6
2 2 2 2 1 3 4 4 4 5 4 3 2 2 2 1 0 0 0 1 4 9 17 20 17 13 11 12 12 12 11 10 9 7 6 4 3 3 4 4 5 6 6
4 4 4 3 3 4 5 4 3 3 3 1 1 1 1 1 0 0 0 0 0 3 8 14 14 12 11 10 10 10 10 9 8 7 6 6 5 5 5 4 4 4 4
7 7 6 5 5 5 5 3 2 1 1 0 0 1 1 0 0 0 0 0 0 1 3 6 9 9 8 9 9 9 9 8 8 6 6 6 5 4 4 4 3 3 3
9 8 6 6 5 4 4 3 2 0 0 0 0 1 1 0 0 0 0 0 1 2 3 3 4 5 6 7 7 7 7 7 7 7 6 6 4 3 3 3 3 3 3
9 8 5 4 4 3 3 2 1 0 0 0 0 0 0 0 0 0 0 0 1 2 3 3 2 3 4 5 6 6 6 6 7 8 8 6 5 4 3 3 3 3 3
10 8 6 5 5 4 3 2 1 1 0 0 1 1 0 0 0 0 0 0 0 1 2 3 3 3 3 4 4 5 6 5 6 8 9 7 5 4 4 3 3 3 3
13 12 10 9 8 7 5 3 2 2 1 1 2 2 2 2 1 1 0 0 0 0 1 2 2 2 2 3 3 4 5 4 5 6 8 7 5 4 3 3 3 3 3
18 17 15 13 11 9 6 3 1 2 2 3 3 3 4 3 3 2 1 0 0 0 0 1 1 0 1 3 3 3 4 3 3 4 5 5 4 3 3 3 3 3 3
19 18 17 15 13 10 6 2 0 1 2 3 4 4 4 4 4 4 2 1 1 1 0 0 0 0 1 3 3 3 3 3 3 3 3 3 3 3 3 3 3 3 3
16 17 17 16 15 11 7 4 2 2 2 4 5 5 5 4 5 5 3 3 2 1 0 0 1 1 2 3 3 3 3 3 3 2 2 3 3 3 3 3 3 3 3
14 15 15 15 14 12 10 8 5 4 5 6 6 5 5 5 6 6 5 4 3 1 0 1 2 3 3 3 3 3 3 3 2 1 1 1 2 3 3 2 3 3 3
16 14 12 11 12 12 11 10 8 6 7 7 6 4 4 5 8 8 7 5 3 1 0 1 2 3 3 3 2 2 2 2 1 0 0 0 1 1 2 2 2 3 3
17 14 10 9 10 10 9 9 8 8 9 9 7 6 5 5 7 7 7 6 3 1 1 1 3 3 3 2 2 1 1 1 0 0 0 0 0 0 1 1 1 2 2
15 14 11 9 9 8 7 7 8 9 9 9 9 8 7 6 5 6 6 5 4 3 2 3 3 3 3 3 2 1 0 0 0 0 0 0 0 0 0 0 0 1 1
12 12 12 11 9 7 6 6 7 7 9 9 10 9 8 7 6 6 5 4 3 3 3 3 3 3 2 2 2 1 0 0 0 0 0 0 0 0 0 0 0 0 0
10 12 12 10 8 7 6 6 6 7 7 8 9 9 8 7 7 6 5 3 3 2 2 2 2 1 1 1 1 0 0 0 0 0 0 0 0 0 0 0 0 0 0
11 12 11 8 5 6 6 6 6 6 6 6 7 7 6 6 7 6 3 2 1 1 1 1 1 1 0 0 0 0 0 0 0 0 0 0 0 0 0 0 0 0 0
14 14 11 6 3 4 5 5 5 6 5 4 3 3 3 5 6 5 2 1 1 2 2 2 2 2 1 0 0 0 0 0 0 0 0 0 0 0 0 0 0 0 0
15 15 11 6 2 2 2 2 3 4 3 1 1 1 1 3 4 3 2 1 1 2 3 2 3 2 1 0 0 0 0 0 0 0 0 0 0 0 0 0 0 0 0
13 13 11 6 3 1 0 0 1 2 1 1 1 0 1 2 3 2 1 1 0 1 2 2 2 1 0 0 0 0 0 0 0 0 0 0 0 0 0 0 0 0 0
10 10 10 8 5 2 1 0 0 0 1 2 2 1 0 1 2 2 2 1 0 0 0 0 0 0 0 0 0 0 0 0 0 0 0 0 0 0 0 0 0 0 0
8 9 10 9 6 3 1 0 0 0 1 2 3 2 1 0 1 1 2 1 0 0 0 0 0 0 0 0 0 0 0 0 0 0 0 0 0 0 0 0 0 0 0
8 9 9 8 6 4 2 0 0 0 1 2 3 3 1 0 0 0 1 1 0 0 0 0 0 0 0 0 0 0 0 0 0 0 0 0 0 0 0 0 0 0 0
8 9 8 7 5 4 2 1 0 1 2 2 3 3 1 0 0 0 0 0 0 0 0 0 0 0 0 0 0 0 0 0 0 0 0 0 0 0 0 0 0 0 0
Wind_Speed
2 2 1 1 2 1 1 1 1 1 1 1 2 3 2 2 2 2 2 8 10 10 11 12 11 11 10 9 9 8 8 8 8 8 8 8 8 8 7 8 9 8 8
3 2 2 1 1 2 2 2 2 2 1 1 1 2 3 3 3 3 3 5 9 10 10 11 12 11 11 10 9 9 9 8 7 8 9 8 8 8 8 8 8 8 8
3 3 2 2 1 1 2 1 1 1 1 1 1 2 2 3 3 3 3 3 3 7 10 10 10 10 11 10 10 10 9 9 8 8 9 9 9 9 9 8 8 8 8
4 3 2 2 1 1 1 1 1 1 1 1 1 1 1 2 3 3 3 3 3 4 6 9 9 10 11 11 10 10 10 10 9 9 9 9 9 9 9 8 8 7 7
4 3 2 2 2 1 1 1 1 1 1 1 1 1 1 2 2 3 3 4 4 3 3 6 9 10 11 11 11 10 10 10 10 9 9 9 9 9 9 8 8 8 8
3 3 2 2 2 2 1 1 1 1 1 1 1 0 1 1 1 2 4 3 3 4 4 4 4 6 9 10 10 11 11 11 10 10 10 10 9 9 9 9 9 9 8
3 3 2 2 2 2 2 2 1 1 0 0 1 2 2 1 1 2 2 2 3 4 4 3 3 2 3 6 7 8 8 10 10 10 10 10 10 9 9 10 10 9 9
3 4 3 2 2 2 1 1 2 1 0 1 2 1 2 3 3 2 1 2 2 2 3 4 3 3 2 2 3 7 7 7 8 9 9 10 10 10 10 10 10 10 10
3 2 3 2 2 3 2 2 2 3 1 0 1 3 2 2 2 2 1 1 1 1 2 2 4 4 4 2 2 4 6 7 8 7 7 8 9 10 11 11 11 11 10
2 2 2 2 2 2 2 2 2 2 3 1 0 1 2 3 2 1 2 2 1 1 2 2 3 3 4 3 3 5 7 8 8 8 7 7 7 9 10 10 11 11 12
1 2 3 2 2 1 2 2 1 2 2 2 1 1 0 0 1 2 1 3 2 2 1 2 1 2 3 3 3 4 7 7 7 7 6 6 6 8 9 10 11 11 11
0 1 2 2 2 2 2 2 2 2 2 2 1 1 2 1 1 2 2 2 2 2 2 1 1 2 2 2 4 5 6 6 6 6 6 6 6 7 7 9 10 10 11
1 2 2 2 2 2 2 2 1 1 2 2 2 1 1 2 2 2 2 1 1 2 2 2 2 2 2 2 3 5 6 7 6 6 6 6 6 6 6 7 7 8 9
3 2 3 2 2 2 2 2 1 2 1 1 2 2 1 1 1 2 3 3 0 1 2 3 2 2 2 2 3 5 3 6 6 6 6 7 6 7 7 7 6 6 6
2 3 3 3 3 3 3 2 2 2 1 1 2 2 2 1 1 1 2 3 3 2 3 3 2 2 1 2 3 2 3 5 6 6 7 7 7 7 7 7 6 6 6
2 2 3 3 3 3 3 2 2 2 2 2 2 1 1 1 1 1 1 1 2 3 3 3 2 2 1 1 3 2 3 5 7 7 7 7 7 7 7 7 7 7 7
3 3 3 3 3 3 3 3 3 2 2 2 2 1 2 1 1 1 1 1 1 2 3 2 1 1 1 1 1 2 2 3 4 7 8 8 8 8 8 8 8 8 8
3 4 4 4 4 4 3 4 4 3 3 3 2 2 2 2 1 1 1 1 1 2 2 2 2 1 2 2 2 2 2 2 3 5 7 8 8 8 8 8 8 8 8
3 3 4 4 4 4 4 4 4 4 4 4 3 3 3 2 2 2 2 2 1 1 2 2 2 1 1 1 1 2 2 2 3 3 4 6 7 8 8 8 8 8 9
3 3 4 4 4 4 4 3 3 3 3 3 3 4 4 4 4 3 2 2 2 1 1 1 1 1 1 1 0 1 2 2 2 2 2 3 4 6 7 8 8 9 9
3 3 3 3 3 3 4 4 4 4 3 3 3 3 3 4 5 4 3 3 2 2 1 2 1 0 1 0 1 1 1 2 2 1 1 2 2 2 3 6 7 8 8
3 3 3 4 4 3 4 5 4 3 3 3 3 3 3 3 4 4 4 4 5 4 3 2 2 2 3 2 1 1 1 1 3 2 0 3 1 2 3 3 5 7 8
3 4 4 4 4 5 6 6 6 4 4 4 4 3 3 3 3 2 3 4 4 5 5 4 4 4 4 4 3 2 2 3 3 3 1 3 2 3 3 4 6 7 7
3 3 4 4 4 5 6 7 6 4 4 4 4 4 4 3 3 3 3 2 3 3 4 4 4 5 4 4 4 4 4 2 3 2 1 2 2 3 3 3 5 6 7
3 3 3 4 4 5 6 7 6 3 3 4 4 4 4 4 5 5 3 3 2 3 4 4 5 5 5 6 4 2 1 1 2 3 1 2 2 2 2 3 3 5 5
3 3 3 3 3 4 5 6 6 3 3 3 2 2 4 5 5 6 5 4 4 5 3 2 3 3 4 5 6 5 4 3 2 3 2 2 2 1 2 3 2 2 2
Wind_Direction
163 174 173 176 182 179 179 197 215 214 198 183 173 167 169 169 176 183 189 191 192 194 194 191 191 192 197 199 199 194 193 197 200 201 197 194 198 199 196 190 186 186 188
164 163 175 189 196 197 191 196 206 192 185 167 161 171 164 175 182 186 193 194 192 192 195 197 199 198 200 205 207 201 196 198 200 200 199 194 195 197 196 193 187 186 190
161 157 169 190 198 184 170 167 160 132 157 149 161 189 171 188 185 186 190 191 193 197 199 203 205 206 206 210 212 209 204 198 199 199 198 197 198 197 198 196 190 189 191
163 151 161 190 183 149 146 147 126 114 130 160 190 209 196 203 203 192 195 198 196 203 208 209 210 212 213 213 213 213 210 204 204 203 203 199 197 198 201 194 191 192 195
165 152 165 184 153 131 143 169 133 143 158 201 212 207 204 200 202 195 198 201 202 204 209 215 215 216 218 220 217 214 212 208 209 208 208 205 202 201 202 196 193 194 200
163 153 163 172 146 131 135 139 136 119 165 191 223 288 275 221 208 208 210 205 207 212 209 209 213 226 224 223 218 216 216 213 211 209 209 208 202 198 199 198 199 201 202
169 166 172 166 152 156 183 169 148 96 350 100 71 358 335 311 241 226 221 204 213 216 204 202 199 206 225 225 219 216 221 215 214 213 213 210 207 204 204 207 208 206 203
171 173 169 175 173 167 170 167 150 151 259 112 128 105 354 338 323 269 229 203 208 200 198 198 184 189 201 200 203 209 219 213 213 213 215 213 213 210 211 213 214 211 209
167 163 163 162 173 169 185 194 172 161 176 270 138 145 151 227 292 319 305 207 195 193 212 200 194 196 196 196 204 204 202 207 214 214 215 214 215 216 216 216 216 216 214
162 158 156 158 168 169 181 200 177 165 153 186 266 176 168 165 161 306 323 314 291 215 222 218 209 205 200 198 203 200 202 208 216 219 220 219 221 221 222 217 216 217 216
161 159 153 149 157 168 172 167 156 157 162 169 181 181 132 109 138 150 275 311 327 295 249 229 215 211 204 204 204 204 203 208 215 220 222 217 225 223 221 218 218 219 218
192 175 158 161 167 174 178 172 163 158 172 169 176 170 161 161 188 167 200 251 276 287 282 263 218 215 211 200 206 201 202 205 214 221 223 222 225 225 225 223 224 225 226
205 213 180 181 184 192 190 169 161 173 174 173 192 204 193 196 176 168 167 209 254 288 303 285 248 230 224 202 216 210 211 212 217 220 223 224 226 226 226 227 228 230 230
205 203 194 199 200 190 188 175 183 199 170 192 217 214 206 223 185 173 169 160 161 308 307 284 288 247 237 210 222 205 212 213 216 221 223 224 226 228 229 230 230 232 233
203 197 193 201 208 198 186 174 190 205 187 202 225 224 218 228 204 195 168 161 161 199 263 268 275 269 236 207 216 202 209 216 219 226 230 231 230 231 231 232 233 233 233
208 195 194 201 201 198 196 182 190 199 191 217 214 208 228 235 222 180 171 169 168 175 223 252 248 269 257 232 220 214 225 227 228 227 226 227 228 232 232 233 234 233 232
199 198 202 204 199 192 191 183 193 194 200 226 232 219 236 226 218 200 163 158 175 166 207 265 262 278 261 255 262 255 242 227 230 231 230 229 228 231 234 235 236 237 235
203 200 198 202 200 195 191 191 204 203 203 215 225 211 234 225 216 207 181 194 200 180 178 229 282 289 260 249 237 246 257 239 234 238 236 236 233 232 235 237 240 241 240
207 203 196 200 203 202 194 198 202 205 209 214 214 212 221 208 225 221 201 202 206 190 167 178 247 261 269 274 292 286 280 282 263 252 243 241 239 238 239 242 244 245 244
213 211 205 201 202 203 197 201 203 204 207 218 219 216 214 206 215 214 209 216 207 191 174 174 222 268 276 285 169 274 305 305 290 294 280 258 249 247 246 246 246 244 243
221 217 208 207 207 201 204 200 201 203 206 221 226 223 220 213 209 207 201 201 192 190 190 196 217 240 279 314 257 254 266 296 293 285 293 283 269 259 255 251 247 241 236
221 213 213 209 214 219 208 203 197 205 208 209 220 229 229 219 223 223 215 205 190 189 200 201 207 214 230 225 219 222 233 302 295 287 265 283 266 265 262 247 239 235 233
224 216 217 211 215 223 215 210 206 199 207 213 214 217 228 224 214 213 226 229 230 225 206 199 211 220 220 215 200 216 217 216 243 255 198 275 273 264 264 260 245 240 241
234 227 222 219 219 230 222 218 211 206 212 222 219 211 212 222 223 206 205 223 243 245 229 220 220 228 224 212 200 208 221 240 267 264 183 249 278 268 275 271 262 252 246
243 237 224 217 220 236 228 219 203 197 218 233 230 221 208 213 227 206 188 209 252 272 259 236 230 235 235 221 201 177 189 199 273 274 227 207 264 280 284 278 276 264 260
237 237 227 216 218 231 227 215 199 189 209 233 237 228 220 219 225 206 195 200 229 251 256 269 269 271 254 237 219 198 192 195 227 261 241 191 237 271 304 288 278 279 275